[[{"header":{"parameterUnit":"m.s-1","parameterCategory":1,"la1":30.2991,"la2":30.254,"lo1":-89.0895,"lo2":-89.0444,"dy":0.0017,"dx":0.0017,"nx":28,"ny":28,"refTime":"2025-04-28T03:00:00:Z","depth":0,"parameterNumber":2,"parameterNumberName":"U-component_of_WINDS"},"data":[0,0,0,0,0,0,0,0,0,0,0,0,0,0,0,0,0,0,0,0,0,0,0,0,0,0,0,0,0,0,0,0,0,0,0,0,0,0,0,0,0,0,0,0,0,0,0,0,0,0,0,0,0,0,0,0,0,0,-2.0859,-2.0858,0,-2.0848,-2.0848,-2.0848,-2.0824,-2.0824,-2.0823,-2.0823,-2.0812,-2.0813,-2.0813,0,0,0,0,0,0,0,0,0,0,0,0,0,-2.0858,-2.0858,-2.0859,-2.0858,-2.0858,-2.0848,-2.0848,-2.0848,-2.0824,-2.0824,-2.0823,-2.0822,-2.0812,-2.0813,-2.0813,0,0,0,0,0,0,0,0,0,0,0,0,0,-2.0854,-2.0858,-2.0859,-2.0845,-2.0844,-2.0848,-2.0848,-2.0848,-2.0824,-2.0824,-2.0823,-2.0822,-2.0812,-2.0813,-2.0813,-2.0829,0,0,-2.0814,-2.0814,0,0,0,0,0,0,0,0,-2.0854,-2.0854,-2.0847,-2.0846,-2.0845,-2.0837,-2.0844,-2.0842,-2.0825,-2.0832,-2.0823,-2.0822,-2.0821,-2.0821,-2.082,-2.0829,-2.0829,-2.0814,-2.0814,-2.0814,-2.0814,0,0,0,0,0,0,0,-2.0855,-2.0855,-2.0854,-2.0847,-2.0846,-2.084,-2.0839,-2.0844,-2.0831,-2.0831,-2.0829,-2.0828,-2.082,-2.082,-2.082,-2.0828,-2.0814,-2.0814,-2.0814,-2.0814,-2.085,-2.085,0,0,0,0,0,0,-2.0857,-2.0855,-2.0855,-2.0854,-2.0848,-2.0841,-2.0839,-2.084,-2.0831,-2.0829,-2.0829,-2.0827,-2.082,-2.082,-2.082,-2.0837,-2.0814,-2.0814,-2.0814,-2.0849,-2.085,-2.0851,0,0,0,0,0,0,-2.0857,-2.0857,-2.0855,-2.0854,-2.0853,-2.0841,-2.0843,-2.084,-2.084,-2.0829,-2.0827,-2.0831,-2.0819,-2.0819,-2.0827,-2.0837,-2.0814,-2.0815,-2.0848,-2.0849,-2.085,-2.0874,0,0,0,0,0,0,-2.0857,-2.0857,-2.0863,-2.0854,-2.0854,-2.0863,-2.0843,-2.0841,-2.0841,-2.0838,-2.083,-2.0829,-2.0819,-2.0827,-2.0827,-2.0837,-2.0815,-2.0847,-2.0848,-2.085,-2.0872,-2.0876,-2.0879,0,0,0,0,0,-2.0857,-2.0871,-2.0864,-2.0864,-2.0861,-2.0863,-2.0863,-2.0851,-2.0841,-2.0847,-2.084,-2.0829,-2.0836,-2.0828,-2.0828,-2.0838,-2.0846,-2.0848,-2.085,-2.0871,-2.0875,-2.0879,0,0,0,0,0,0,-2.0881,-2.0869,-2.0861,-2.0872,-2.0869,-2.0859,-2.0866,-2.0856,-2.0856,-2.0854,-2.084,-2.0838,-2.0848,-2.0844,-2.0835,-2.0853,-2.0839,-2.0841,-2.0855,-2.0859,-2.0862,-2.0863,-2.0815,0,0,0,0,0,-2.0888,-2.0891,-2.088,-2.0891,-2.089,-2.0879,-2.0879,-2.0871,-2.0867,-2.0865,-2.0859,-2.0855,-2.0857,-2.0858,-2.0859,-2.0872,-2.087,-2.0879,-2.0882,-2.0885,-2.0887,-2.0893,-2.0896,-2.0856,-2.0856,-2.0856,0,0,-2.0901,-2.0895,-2.0898,-2.0896,-2.0892,-2.0895,-2.0877,-2.0882,-2.0884,-2.0866,-2.0872,-2.0868,-2.0863,-2.0874,-2.0878,-2.0871,-2.0897,-2.0887,-2.089,-2.089,-2.0895,-2.0898,-2.0902,-2.0857,-2.0857,-2.0857,0,0,-2.0927,-2.0923,-2.0931,-2.0928,-2.0923,-2.0915,-2.0917,-2.0909,-2.0905,-2.0912,-2.0898,-2.0901,-2.0904,-2.0901,-2.09,-2.0926,-2.0915,-2.0926,-2.0943,-2.0949,-2.0952,-2.0955,-2.0963,-2.0966,-2.0928,-2.0928,-2.0928,0,-2.0944,-2.0948,-2.0937,-2.0942,-2.0941,-2.0925,-2.0933,-2.0931,-2.0926,-2.0926,-2.0918,-2.0921,-2.0917,-2.0926,-2.0932,-2.0933,-2.0934,-2.0926,-2.0953,-2.0955,-2.0958,-2.0965,-2.0968,-2.093,-2.0929,-2.0929,-2.0929,0,-2.097,-2.0973,-2.098,-2.0976,-2.0976,-2.0983,-2.0972,-2.0974,-2.0966,-2.0959,-2.0966,-2.0961,-2.096,-2.0962,-2.0954,-2.097,-2.0965,-2.0955,-2.0941,-2.0963,-2.097,-2.0973,-2.0932,-2.0931,-2.0931,-2.093,0,0,-2.1009,-2.0998,-2.1001,-2.0999,-2.0992,-2.0994,-2.1001,-2.1,-2.1001,-2.0999,-2.1003,-2.1006,-2.0997,-2.0996,-2.0988,-2.0993,-2.1013,-2.0983,-2.0982,-2.0987,-2.1029,-2.1035,-2.1039,-2.1006,-2.1007,-2.1007,-2.1029,0,-2.1032,-2.1041,-2.1031,-2.1042,-2.1045,-2.103,-2.1035,-2.1032,-2.1026,-2.1028,-2.1022,-2.1024,-2.1012,-2.1011,-2.1016,-2.1009,-2.102,-2.1008,-2.1009,-2.1009,-2.1009,-2.1042,-2.1049,-2.107,-2.1031,-2.1032,-2.1032,0,-2.106,-2.1059,-2.1071,-2.1063,-2.1064,-2.1069,-2.1067,-2.1069,-2.1064,-2.106,-2.1059,-2.1049,-2.1054,-2.1041,-2.1048,-2.104,-2.104,-2.1037,-2.1037,-2.1036,-2.1021,-2.104,-2.1076,-2.1079,-2.1036,-2.1036,-2.1036,0,-2.1087,-2.1088,-2.1095,-2.1093,-2.1085,-2.1089,-2.1086,-2.1081,-2.1081,-2.1079,-2.1079,-2.1079,-2.1078,-2.1078,-2.1068,-2.106,-2.1076,-2.1062,-2.1072,-2.1072,-2.1075,-2.1074,-2.1109,-2.1077,-2.1077,-2.1077,-2.1077,0,-2.1113,-2.112,-2.1106,-2.111,-2.1118,-2.1107,-2.1115,-2.111,-2.1106,-2.1109,-2.1097,-2.11,-2.1087,-2.1089,-2.1082,-2.1088,-2.1088,-2.1084,-2.1082,-2.1084,-2.1085,-2.1083,-2.1081,-2.1078,-2.1078,-2.1077,-2.1077,0,-2.1143,-2.1134,-2.114,-2.1132,-2.113,-2.1136,-2.1129,-2.1132,-2.1126,-2.113,-2.113,-2.112,-2.1122,-2.1112,-2.1112,-2.1107,-2.1116,-2.1112,-2.1118,-2.1116,-2.1125,-2.1124,-2.116,-2.1163,-2.113,-2.113,-2.113,0,-2.116,-2.1165,-2.1157,-2.1158,-2.1155,-2.1157,-2.1157,-2.1146,-2.1147,-2.1142,-2.1146,-2.1147,-2.1146,-2.1149,-2.1142,-2.1141,-2.1136,-2.1149,-2.1136,-2.1138,-2.1135,-2.1134,-2.1134,-2.1151,-2.1151,-2.1152,-2.1152,0,-2.119,-2.1185,-2.1186,-2.1184,-2.1185,-2.1183,-2.1181,-2.1183,-2.1171,-2.1172,-2.1173,-2.1173,-2.1172,-2.1172,-2.117,-2.1167,-2.1157,-2.1156,-2.1158,-2.116,-2.1163,-2.116,-2.1123,-2.1155,-2.1155,-2.1155,-2.1155,-2.1154,-2.1213,-2.1217,-2.1212,-2.1212,-2.121,-2.1208,-2.121,-2.1205,-2.1205,-2.1204,-2.1198,-2.12,-2.1195,-2.1192,-2.1189,-2.1191,-2.1185,-2.1188,-2.1188,-2.1189,-2.119,-2.1164,-2.1191,-2.119,-2.119,-2.119,-2.119,0,-2.1242,-2.1238,-2.1239,-2.1236,-2.1236,-2.1228,-2.1225,-2.1226,-2.1228,-2.1224,-2.1224,-2.1225,-2.1225,-2.1218,-2.1218,-2.122,-2.1215,-2.122,-2.1219,-2.1218,-2.1196,-2.1194,-2.1224,-2.1224,-2.1224,-2.1224,-2.1224,-2.1224,-2.1257,-2.1262,-2.1257,-2.1261,-2.1257,-2.1259,-2.1258,-2.1256,-2.1254,-2.1255,-2.1255,-2.1251,-2.1246,-2.1245,-2.1244,-2.1242,-2.1242,-2.1248,-2.1244,-2.1223,-2.122,-2.1217,-2.1215,-2.1248,-2.1248,-2.1266,-2.1266,-2.1266]},{"header":{"parameterUnit":"m.s-1","parameterCategory":1,"la1":30.2991,"la2":30.254,"lo1":-89.0895,"lo2":-89.0444,"dy":0.0017,"dx":0.0017,"nx":28,"ny":28,"refTime":"2025-04-28T03:00:00:Z","depth":0,"parameterNumber":3,"parameterNumberName":"V-component_of_WINDS"},"data":[0,0,0,0,0,0,0,0,0,0,0,0,0,0,0,0,0,0,0,0,0,0,0,0,0,0,0,0,0,0,0,0,0,0,0,0,0,0,0,0,0,0,0,0,0,0,0,0,0,0,0,0,0,0,0,0,0,0,4.06,4.06,0,4.0657,4.0657,4.0658,4.0627,4.0625,4.0624,4.0622,4.0676,4.0679,4.0682,0,0,0,0,0,0,0,0,0,0,0,0,0,4.046,4.0462,4.06,4.06,4.0601,4.0657,4.0657,4.0658,4.0627,4.0625,4.0623,4.0622,4.0675,4.0679,4.0682,0,0,0,0,0,0,0,0,0,0,0,0,0,4.0519,4.0463,4.06,4.0592,4.0592,4.0657,4.0658,4.0658,4.0628,4.0625,4.0623,4.0621,4.0674,4.0678,4.0683,4.0756,0,0,4.0696,4.0698,0,0,0,0,0,0,0,0,4.0515,4.0524,4.0593,4.0593,4.0593,4.0633,4.0628,4.0691,4.0628,4.0614,4.0622,4.062,4.0663,4.0668,4.0684,4.0758,4.076,4.0696,4.0699,4.0701,4.0702,0,0,0,0,0,0,0,4.0511,4.0521,4.0622,4.0594,4.0594,4.0585,4.0591,4.064,4.0651,4.0615,4.0613,4.0621,4.0663,4.068,4.0685,4.0761,4.0696,4.07,4.0702,4.0704,4.0898,4.0901,0,0,0,0,0,0,4.0508,4.0518,4.062,4.0624,4.0548,4.0589,4.0596,4.0622,4.065,4.0652,4.0622,4.0619,4.0674,4.068,4.0687,4.0774,4.0701,4.0705,4.0707,4.0896,4.0899,4.0901,0,0,0,0,0,0,4.0505,4.0518,4.0618,4.0571,4.0583,4.0594,4.0624,4.0624,4.0641,4.0656,4.0657,4.0638,4.0672,4.0681,4.0739,4.0776,4.0707,4.071,4.0893,4.0897,4.09,4.095,0,0,0,0,0,0,4.0502,4.0517,4.0546,4.0571,4.0585,4.0671,4.0626,4.0627,4.065,4.0645,4.0671,4.0673,4.0671,4.0733,4.0743,4.078,4.0714,4.0889,4.0894,4.0899,4.0945,4.0955,4.0963,0,0,0,0,0,4.0497,4.0556,4.0547,4.056,4.0622,4.0673,4.0681,4.0679,4.0653,4.0681,4.069,4.0672,4.077,4.0739,4.0751,4.0789,4.0887,4.0893,4.0899,4.0941,4.0953,4.0963,0,0,0,0,0,0,4.0532,4.0559,4.055,4.062,4.0645,4.0668,4.0703,4.0691,4.0723,4.0717,4.0712,4.0718,4.0779,4.079,4.0755,4.0862,4.0824,4.0833,4.0852,4.0864,4.0873,4.0869,4.0717,0,0,0,0,0,4.0549,4.059,4.061,4.067,4.0683,4.0691,4.0713,4.071,4.0735,4.0745,4.0758,4.0782,4.0818,4.0841,4.0875,4.0946,4.0951,4.0979,4.0988,4.0995,4.1003,4.1041,4.1054,4.092,4.092,4.092,0,0,4.0582,4.0602,4.0628,4.0678,4.0697,4.0738,4.07,4.0745,4.0775,4.0751,4.0807,4.0818,4.0844,4.0909,4.0938,4.092,4.1041,4.1003,4.1009,4.1012,4.1048,4.1061,4.1072,4.0924,4.0924,4.0923,0,0,4.0665,4.0684,4.0736,4.0756,4.0786,4.0791,4.0804,4.0829,4.0836,4.0893,4.0876,4.0911,4.0973,4.0992,4.101,4.1101,4.1085,4.1112,4.116,4.1198,4.1208,4.1217,4.125,4.1261,4.1119,4.1119,4.112,0,4.0702,4.0765,4.0764,4.0811,4.0833,4.0815,4.0867,4.0886,4.0924,4.094,4.0919,4.0998,4.1013,4.1083,4.1106,4.1121,4.1134,4.1109,4.1207,4.1216,4.1225,4.1256,4.1268,4.1123,4.1122,4.1122,4.1122,0,4.081,4.0854,4.0892,4.0932,4.0958,4.1007,4.1013,4.1039,4.1034,4.1041,4.1099,4.1118,4.1156,4.1172,4.1166,4.1241,4.1229,4.1208,4.117,4.1241,4.1269,4.1281,4.1127,4.1126,4.1125,4.1124,0,0,4.0915,4.0955,4.0969,4.0987,4.1019,4.1052,4.11,4.1139,4.1162,4.1189,4.1229,4.1283,4.1264,4.1284,4.1281,4.1314,4.1385,4.1289,4.1289,4.1306,4.1468,4.1483,4.1497,4.1375,4.1377,4.1379,4.1466,0,4.1,4.1086,4.1087,4.1165,4.1206,4.1189,4.1231,4.1254,4.1263,4.1297,4.1305,4.1343,4.1316,4.1328,4.136,4.1369,4.1417,4.1363,4.141,4.1412,4.1404,4.1512,4.1529,4.161,4.1477,4.1479,4.148,0,4.111,4.1143,4.1226,4.1253,4.127,4.1308,4.1343,4.1377,4.1403,4.1406,4.143,4.1421,4.1469,4.1431,4.1496,4.146,4.1479,4.1487,4.149,4.1493,4.145,4.1519,4.1636,4.1648,4.1498,4.1497,4.1495,0,4.1179,4.1244,4.1302,4.1318,4.1351,4.1378,4.1392,4.1416,4.1439,4.147,4.1485,4.152,4.154,4.1567,4.1568,4.154,4.1634,4.1595,4.1637,4.1637,4.1657,4.1656,4.1779,4.1671,4.167,4.167,4.167,0,4.1273,4.1324,4.1334,4.137,4.1427,4.1427,4.1483,4.1494,4.1516,4.1553,4.154,4.1575,4.1574,4.1609,4.161,4.1664,4.1673,4.1676,4.1676,4.1677,4.1677,4.169,4.1684,4.1673,4.1673,4.1672,4.1671,0,4.1359,4.1368,4.143,4.1457,4.1465,4.1505,4.1527,4.1561,4.1568,4.1615,4.1626,4.1637,4.1677,4.1681,4.1728,4.1729,4.1794,4.1787,4.1786,4.1785,4.1826,4.1822,4.1961,4.198,4.186,4.1861,4.1862,0,4.1419,4.1459,4.149,4.1515,4.1531,4.1571,4.1595,4.1596,4.1622,4.1655,4.1685,4.1724,4.1756,4.1822,4.1833,4.1869,4.1863,4.1909,4.1868,4.1868,4.1863,4.1861,4.1865,4.1917,4.1918,4.1919,4.192,0,4.1524,4.1526,4.1563,4.1601,4.1631,4.1661,4.1688,4.1709,4.1713,4.1743,4.1785,4.181,4.1859,4.1898,4.1933,4.1946,4.1934,4.1933,4.1945,4.1946,4.1944,4.1946,4.1807,4.193,4.1929,4.1928,4.1927,4.1927,4.1598,4.1633,4.1661,4.1702,4.1723,4.175,4.1783,4.1795,4.1831,4.1872,4.187,4.1917,4.1941,4.1988,4.2004,4.204,4.2024,4.2041,4.2045,4.2049,4.2053,4.1939,4.2046,4.2046,4.2045,4.2045,4.2045,0,4.1703,4.172,4.1758,4.1798,4.1831,4.1818,4.1848,4.1875,4.1917,4.1942,4.1974,4.2023,4.2061,4.2076,4.2113,4.2139,4.2134,4.2149,4.2146,4.215,4.2065,4.2051,4.2152,4.2152,4.2152,4.2152,4.2152,4.2152,4.1761,4.1819,4.1825,4.1893,4.1909,4.1957,4.1975,4.1999,4.2019,4.2075,4.2107,4.2117,4.2138,4.2176,4.2211,4.2214,4.2228,4.2245,4.2246,4.2166,4.2156,4.2145,4.2132,4.2248,4.2248,4.2328,4.2328,4.2329]}]]